2021-022W

Last updated on Thu Apr 22 2021 00:02:03 GMT+0000 (Coordinated Universal Time)

1 47952U 21022W 21111.44267012 .00000462 00000-0 36170-4 0 9999 2 47952 97.5623 14.7314 0022559 141.2096 334.4680 15.05605597 4473
UTC large
Height (km)
Speed (km/s)
/
Latitude / Longitude
Inclination (degrees)
Orbital Period (minutes)
Azimuth
Elevation
Range (km)
Doppler Factor

Next 0 passes for location: London (51.5072 / 0.1276)

Sorry there are no passes over London.